Time,TemperatureF,DewpointF,PressureIn,WindDirection,WindDirectionDegrees,WindSpeedMPH,WindSpeedGustMPH,Humidity,HourlyPrecipIn,Conditions,Clouds,dailyrainin,SoftwareType,DateUTC
2013-06-18 00:02:00,71.0,68.0,29.95,SW,229,0.0,-999.0,90,-99.99,,,-99.99,,2013-06-18 04:02:00,
2013-06-18 00:12:00,71.0,68.0,29.95,SW,229,0.0,-999.0,90,-99.99,,,-99.99,,2013-06-18 04:12:00,
2013-06-18 00:23:00,70.0,67.0,29.94,SW,229,0.0,-999.0,90,-99.99,,,-99.99,,2013-06-18 04:23:00,
2013-06-18 00:34:00,70.0,67.0,29.94,SW,229,0.0,-999.0,90,-99.99,,,-99.99,,2013-06-18 04:34:00,
2013-06-18 00:43:00,70.0,67.0,29.93,SW,229,0.0,-999.0,91,-99.99,,,-99.99,,2013-06-18 04:43:00,
2013-06-18 00:53:00,69.0,67.0,29.93,SW,229,0.0,-999.0,92,-99.99,,,-99.99,,2013-06-18 04:53:00,
2013-06-18 01:02:00,69.0,67.0,29.93,SW,229,0.0,-999.0,92,-99.99,,,-99.99,,2013-06-18 05:02:00,
2013-06-18 01:12:00,69.0,67.0,29.92,South,175,0.0,-999.0,93,-99.99,,,-99.99,,2013-06-18 05:12:00,
2013-06-18 01:22:00,69.0,67.0,29.92,South,175,0.0,-999.0,93,-99.99,,,-99.99,,2013-06-18 05:22:00,
2013-06-18 01:34:00,69.0,67.0,29.91,South,175,0.0,-999.0,94,-99.99,,,-99.99,,2013-06-18 05:34:00,
2013-06-18 01:43:00,69.0,67.0,29.91,South,175,0.0,-999.0,94,-99.99,,,-99.99,,2013-06-18 05:43:00,
2013-06-18 01:53:00,69.0,67.0,29.91,South,175,0.0,-999.0,94,-99.99,,,-99.99,,2013-06-18 05:53:00,
2013-06-18 02:02:00,69.0,67.0,29.90,South,175,0.0,-999.0,94,-99.99,,,-99.99,,2013-06-18 06:02:00,
2013-06-18 02:11:00,69.0,67.0,29.89,South,175,0.0,-999.0,94,-99.99,,,-99.99,,2013-06-18 06:11:00,
2013-06-18 02:23:00,69.0,67.0,29.88,South,175,0.0,-999.0,94,-99.99,,,-99.99,,2013-06-18 06:23:00,
2013-06-18 02:32:00,69.0,67.0,29.88,South,175,0.0,-999.0,94,-99.99,,,-99.99,,2013-06-18 06:32:00,
2013-06-18 02:43:00,68.0,67.0,29.88,South,175,0.0,-999.0,95,-99.99,,,-99.99,,2013-06-18 06:43:00,
2013-06-18 02:52:00,68.0,67.0,29.88,South,175,0.0,-999.0,95,-99.99,,,-99.99,,2013-06-18 06:52:00,
2013-06-18 03:02:00,68.0,67.0,29.88,South,175,0.0,-999.0,95,-99.99,,,-99.99,,2013-06-18 07:02:00,
2013-06-18 03:12:00,68.0,67.0,29.88,South,175,0.0,-999.0,95,-99.99,,,-99.99,,2013-06-18 07:12:00,
2013-06-18 03:22:00,68.0,67.0,29.88,South,175,0.0,-999.0,95,-99.99,,,-99.99,,2013-06-18 07:22:00,
2013-06-18 03:33:00,68.0,67.0,29.86,South,175,0.0,-999.0,96,-99.99,,,-99.99,,2013-06-18 07:33:00,
2013-06-18 03:43:00,68.0,67.0,29.86,South,175,0.0,-999.0,96,-99.99,,,-99.99,,2013-06-18 07:43:00,
2013-06-18 03:53:00,68.0,67.0,29.86,South,175,0.0,-999.0,96,-99.99,,,-99.99,,2013-06-18 07:53:00,
2013-06-18 04:02:00,68.0,67.0,29.85,SSE,165,0.0,-999.0,96,-99.99,,,-99.99,,2013-06-18 08:02:00,
2013-06-18 04:11:00,68.0,67.0,29.85,SSE,165,0.0,-999.0,96,-99.99,,,-99.99,,2013-06-18 08:11:00,
2013-06-18 04:23:00,68.0,67.0,29.85,SSE,165,0.0,-999.0,96,-99.99,,,-99.99,,2013-06-18 08:23:00,
2013-06-18 04:33:00,68.0,67.0,29.85,SSE,165,0.0,-999.0,96,-99.99,,,-99.99,,2013-06-18 08:33:00,
2013-06-18 04:43:00,68.0,67.0,29.85,SSE,165,0.0,-999.0,96,-99.99,,,-99.99,,2013-06-18 08:43:00,
2013-06-18 04:52:00,68.0,67.0,29.85,SSE,165,0.0,-999.0,96,-99.99,,,-99.99,,2013-06-18 08:52:00,
2013-06-18 05:02:00,68.0,67.0,29.85,SSE,165,0.0,-999.0,96,-99.99,,,-99.99,,2013-06-18 09:02:00,
2013-06-18 05:12:00,68.0,67.0,29.85,SSE,165,0.0,-999.0,96,-99.99,,,-99.99,,2013-06-18 09:12:00,
2013-06-18 05:22:00,68.0,67.0,29.85,SSE,165,0.0,-999.0,96,-99.99,,,-99.99,,2013-06-18 09:22:00,
2013-06-18 05:34:00,68.0,67.0,29.86,SSE,165,0.0,-999.0,96,-99.99,,,-99.99,,2013-06-18 09:34:00,
2013-06-18 05:43:00,68.0,67.0,29.86,SSE,165,0.0,-999.0,96,-99.99,,,-99.99,,2013-06-18 09:43:00,
2013-06-18 05:53:00,68.0,67.0,29.86,SSE,165,0.0,-999.0,96,-99.99,,,-99.99,,2013-06-18 09:53:00,
2013-06-18 06:02:00,68.0,67.0,29.86,SSE,165,0.0,-999.0,96,-99.99,,,-99.99,,2013-06-18 10:02:00,
2013-06-18 06:11:00,68.0,67.0,29.87,SSE,165,0.0,-999.0,96,-99.99,,,-99.99,,2013-06-18 10:11:00,
2013-06-18 06:22:00,68.0,67.0,29.86,SSE,165,0.0,-999.0,96,-99.99,,,-99.99,,2013-06-18 10:22:00,
2013-06-18 06:33:00,68.0,67.0,29.86,SSE,165,0.0,-999.0,96,-99.99,,,-99.99,,2013-06-18 10:33:00,
2013-06-18 06:43:00,67.0,66.0,29.86,SSE,165,0.0,-999.0,96,-99.99,,,-99.99,,2013-06-18 10:43:00,
2013-06-18 06:53:00,67.0,66.0,29.86,SSE,165,0.0,-999.0,96,-99.99,,,-99.99,,2013-06-18 10:53:00,
2013-06-18 07:02:00,67.0,66.0,29.86,SSE,165,0.0,-999.0,96,-99.99,,,-99.99,,2013-06-18 11:02:00,
2013-06-18 07:11:00,67.0,66.0,29.86,SSE,165,0.0,-999.0,96,-99.99,,,-99.99,,2013-06-18 11:11:00,
2013-06-18 07:22:00,67.0,66.0,29.86,SSE,165,0.0,-999.0,96,-99.99,,,-99.99,,2013-06-18 11:22:00,
2013-06-18 07:32:00,67.0,66.0,29.86,SSE,165,0.0,-999.0,96,-99.99,,,-99.99,,2013-06-18 11:32:00,
2013-06-18 07:43:00,67.0,66.0,29.86,SSE,165,0.0,-999.0,96,-99.99,,,-99.99,,2013-06-18 11:43:00,
2013-06-18 07:52:00,67.0,66.0,29.86,SSE,165,0.0,-999.0,96,-99.99,,,-99.99,,2013-06-18 11:52:00,
2013-06-18 08:01:00,67.0,66.0,29.86,South,174,0.0,-999.0,96,-99.99,,,-99.99,,2013-06-18 12:01:00,
2013-06-18 08:11:00,67.0,66.0,29.86,South,174,0.0,-999.0,96,-99.99,,,-99.99,,2013-06-18 12:11:00,
2013-06-18 08:22:00,67.0,66.0,29.87,South,172,0.0,-999.0,96,-99.99,,,-99.99,,2013-06-18 12:22:00,
2013-06-18 08:33:00,67.0,66.0,29.87,South,169,0.0,-999.0,96,-99.99,,,-99.99,,2013-06-18 12:33:00,
2013-06-18 08:43:00,67.0,66.0,29.86,NW,320,0.0,-999.0,96,-99.99,,,-99.99,,2013-06-18 12:43:00,
2013-06-18 08:52:00,67.0,66.0,29.86,NW,320,0.0,-999.0,96,-99.99,,,-99.99,,2013-06-18 12:52:00,
2013-06-18 09:02:00,67.0,66.0,29.87,SSE,164,0.0,-999.0,95,-99.99,,,-99.99,,2013-06-18 13:02:00,
2013-06-18 09:12:00,68.0,67.0,29.87,SSE,161,0.0,-999.0,95,-99.99,,,-99.99,,2013-06-18 13:12:00,
2013-06-18 09:22:00,68.0,67.0,29.87,SSE,161,0.0,-999.0,95,-99.99,,,-99.99,,2013-06-18 13:22:00,
2013-06-18 09:33:00,68.0,66.0,29.86,SE,125,0.0,-999.0,94,-99.99,,,-99.99,,2013-06-18 13:33:00,
2013-06-18 09:43:00,68.0,66.0,29.87,SE,138,0.0,-999.0,94,-99.99,,,-99.99,,2013-06-18 13:43:00,
2013-06-18 09:52:00,68.0,66.0,29.87,SE,138,0.0,-999.0,94,-99.99,,,-99.99,,2013-06-18 13:52:00,
2013-06-18 10:02:00,69.0,67.0,29.86,SE,138,0.0,-999.0,94,-99.99,,,-99.99,,2013-06-18 14:02:00,
2013-06-18 10:11:00,69.0,67.0,29.86,SE,138,0.0,-999.0,93,-99.99,,,-99.99,,2013-06-18 14:11:00,
2013-06-18 10:22:00,69.0,67.0,29.85,SE,138,0.0,-999.0,92,-99.99,,,-99.99,,2013-06-18 14:22:00,
2013-06-18 10:33:00,69.0,67.0,29.85,SE,138,0.0,-999.0,92,-99.99,,,-99.99,,2013-06-18 14:33:00,
2013-06-18 10:43:00,70.0,68.0,29.85,South,173,0.0,-999.0,92,-99.99,,,-99.99,,2013-06-18 14:43:00,
2013-06-18 10:53:00,70.0,68.0,29.85,South,173,0.0,-999.0,92,-99.99,,,-99.99,,2013-06-18 14:53:00,
2013-06-18 11:02:00,70.0,67.0,29.85,South,184,0.0,-999.0,90,-99.99,,,-99.99,,2013-06-18 15:02:00,
2013-06-18 11:11:00,71.0,68.0,29.85,SSW,192,0.0,-999.0,91,-99.99,,,-99.99,,2013-06-18 15:11:00,
2013-06-18 11:22:00,71.0,68.0,29.85,SSW,192,0.0,-999.0,91,-99.99,,,-99.99,,2013-06-18 15:22:00,
2013-06-18 11:33:00,71.0,68.0,29.85,SSE,164,0.0,-999.0,90,-99.99,,,-99.99,,2013-06-18 15:33:00,
2013-06-18 11:43:00,71.0,68.0,29.85,South,175,0.0,-999.0,91,-99.99,,,-99.99,,2013-06-18 15:43:00,
2013-06-18 11:53:00,71.0,68.0,29.85,South,175,0.0,-999.0,91,-99.99,,,-99.99,,2013-06-18 15:53:00,
2013-06-18 12:01:00,71.0,69.0,29.85,South,175,0.0,-999.0,92,-99.99,,,-99.99,,2013-06-18 16:01:00,
2013-06-18 12:11:00,71.0,69.0,29.85,South,175,0.0,-999.0,92,-99.99,,,-99.99,,2013-06-18 16:11:00,
2013-06-18 12:23:00,71.0,69.0,29.85,SSE,155,0.0,-999.0,92,-99.99,,,-99.99,,2013-06-18 16:23:00,
2013-06-18 12:33:00,71.0,69.0,29.84,South,175,0.0,-999.0,92,-99.99,,,-99.99,,2013-06-18 16:33:00,
2013-06-18 12:43:00,71.0,69.0,29.83,South,176,0.0,-999.0,93,-99.99,,,-99.99,,2013-06-18 16:43:00,
2013-06-18 12:53:00,71.0,69.0,29.83,South,176,0.0,-999.0,93,-99.99,,,-99.99,,2013-06-18 16:53:00,
2013-06-18 13:02:00,71.0,68.0,29.83,South,185,1.0,-999.0,91,-99.99,,,-99.99,,2013-06-18 17:02:00,
2013-06-18 13:12:00,72.0,70.0,29.82,South,171,1.0,-999.0,92,-99.99,,,-99.99,,2013-06-18 17:12:00,
2013-06-18 13:22:00,73.0,69.0,29.81,SSE,161,1.0,-999.0,87,-99.99,,,-99.99,,2013-06-18 17:22:00,
2013-06-18 13:33:00,73.0,69.0,29.81,SSE,161,1.0,-999.0,87,-99.99,,,-99.99,,2013-06-18 17:33:00,
2013-06-18 13:43:00,74.0,70.0,29.80,South,180,0.0,-999.0,87,-99.99,,,-99.99,,2013-06-18 17:43:00,
2013-06-18 13:53:00,74.0,70.0,29.80,South,180,0.0,-999.0,87,-99.99,,,-99.99,,2013-06-18 17:53:00,
2013-06-18 14:02:00,74.0,70.0,29.79,SSE,163,0.0,-999.0,86,-99.99,,,-99.99,,2013-06-18 18:02:00,
2013-06-18 14:12:00,75.0,70.0,29.79,South,191,1.0,-999.0,84,-99.99,,,-99.99,,2013-06-18 18:12:00,
2013-06-18 14:22:00,75.0,70.0,29.79,South,191,1.0,-999.0,84,-99.99,,,-99.99,,2013-06-18 18:22:00,
2013-06-18 14:33:00,75.0,69.0,29.78,SE,146,1.0,-999.0,83,-99.99,,,-99.99,,2013-06-18 18:33:00,
2013-06-18 14:42:00,74.0,68.0,29.79,SSE,168,0.0,-999.0,83,-99.99,,,-99.99,,2013-06-18 18:42:00,
2013-06-18 14:53:00,74.0,68.0,29.79,SSE,168,0.0,-999.0,83,-99.99,,,-99.99,,2013-06-18 18:53:00,
2013-06-18 15:02:00,74.0,69.0,29.79,SSW,208,0.0,-999.0,84,-99.99,,,-99.99,,2013-06-18 19:02:00,
2013-06-18 15:12:00,72.0,69.0,29.80,SSW,209,0.0,-999.0,89,-99.99,,,-99.99,,2013-06-18 19:12:00,
2013-06-18 15:22:00,72.0,69.0,29.80,SSW,209,0.0,-999.0,89,-99.99,,,-99.99,,2013-06-18 19:22:00,
2013-06-18 15:33:00,71.0,69.0,29.80,West,278,0.0,-999.0,93,-99.99,,,-99.99,,2013-06-18 19:33:00,
2013-06-18 15:43:00,71.0,69.0,29.80,West,280,0.0,-999.0,93,-99.99,,,-99.99,,2013-06-18 19:43:00,
2013-06-18 15:52:00,70.0,68.0,29.80,WNW,296,0.0,-999.0,94,-99.99,,,-99.99,,2013-06-18 19:52:00,
2013-06-18 16:02:00,70.0,68.0,29.80,WNW,296,0.0,-999.0,94,-99.99,,,-99.99,,2013-06-18 20:02:00,
2013-06-18 16:11:00,70.0,68.0,29.80,WNW,296,0.0,-999.0,95,-99.99,,,-99.99,,2013-06-18 20:11:00,
2013-06-18 16:23:00,70.0,69.0,29.79,WNW,296,0.0,-999.0,96,-99.99,,,-99.99,,2013-06-18 20:23:00,
2013-06-18 16:33:00,70.0,69.0,29.79,WNW,296,0.0,-999.0,96,-99.99,,,-99.99,,2013-06-18 20:33:00,
2013-06-18 16:43:00,71.0,70.0,29.80,WNW,296,0.0,-999.0,96,-99.99,,,-99.99,,2013-06-18 20:43:00,
2013-06-18 16:52:00,71.0,69.0,29.80,WNW,296,0.0,-999.0,94,-99.99,,,-99.99,,2013-06-18 20:52:00,
2013-06-18 17:02:00,71.0,69.0,29.80,WNW,296,0.0,-999.0,94,-99.99,,,-99.99,,2013-06-18 21:02:00,
2013-06-18 17:12:00,72.0,70.0,29.79,WNW,296,0.0,-999.0,92,-99.99,,,-99.99,,2013-06-18 21:12:00,
2013-06-18 17:23:00,72.0,70.0,29.79,WNW,296,0.0,-999.0,92,-99.99,,,-99.99,,2013-06-18 21:23:00,
2013-06-18 17:33:00,72.0,69.0,29.79,WNW,291,0.0,-999.0,89,-99.99,,,-99.99,,2013-06-18 21:33:00,
2013-06-18 17:43:00,72.0,69.0,29.79,SW,223,0.0,-999.0,89,-99.99,,,-99.99,,2013-06-18 21:43:00,
2013-06-18 17:52:00,71.0,67.0,29.80,NW,325,0.0,-999.0,87,-99.99,,,-99.99,,2013-06-18 21:52:00,
2013-06-18 18:02:00,71.0,67.0,29.80,NW,325,0.0,-999.0,87,-99.99,,,-99.99,,2013-06-18 22:02:00,
2013-06-18 18:11:00,70.0,67.0,29.80,NW,325,0.0,-999.0,89,-99.99,,,-99.99,,2013-06-18 22:11:00,
2013-06-18 18:22:00,71.0,68.0,29.80,NW,304,0.0,-999.0,90,-99.99,,,-99.99,,2013-06-18 22:22:00,
2013-06-18 18:34:00,71.0,68.0,29.80,NW,304,0.0,-999.0,90,-99.99,,,-99.99,,2013-06-18 22:34:00,
2013-06-18 18:43:00,71.0,68.0,29.80,NW,304,0.0,-999.0,90,-99.99,,,-99.99,,2013-06-18 22:43:00,
2013-06-18 18:53:00,73.0,67.0,29.80,NW,318,0.0,-999.0,81,-99.99,,,-99.99,,2013-06-18 22:53:00,
2013-06-18 19:02:00,73.0,67.0,29.80,NW,318,0.0,-999.0,81,-99.99,,,-99.99,,2013-06-18 23:02:00,
2013-06-18 19:12:00,72.0,66.0,29.80,NNE,30,0.0,-999.0,81,-99.99,,,-99.99,,2013-06-18 23:12:00,
2013-06-18 19:23:00,71.0,66.0,29.80,NE,55,0.0,-999.0,84,-99.99,,,-99.99,,2013-06-18 23:23:00,
2013-06-18 19:37:00,71.0,66.0,29.80,NE,55,0.0,-999.0,84,-99.99,,,-99.99,,2013-06-18 23:37:00,
2013-06-18 19:46:00,70.0,65.0,29.80,SSW,198,0.0,-999.0,85,-99.99,,,-99.99,,2013-06-18 23:46:00,
2013-06-18 19:53:00,70.0,65.0,29.80,SSW,198,0.0,-999.0,85,-99.99,,,-99.99,,2013-06-18 23:53:00,
2013-06-18 20:02:00,69.0,65.0,29.80,WSW,249,0.0,-999.0,87,-99.99,,,-99.99,,2013-06-19 00:02:00,
2013-06-18 20:12:00,67.0,64.0,29.81,WSW,249,0.0,-999.0,90,-99.99,,,-99.99,,2013-06-19 00:12:00,
2013-06-18 20:22:00,66.0,64.0,29.82,West,279,0.0,-999.0,92,-99.99,,,-99.99,,2013-06-19 00:22:00,
2013-06-18 20:33:00,66.0,64.0,29.82,West,279,0.0,-999.0,92,-99.99,,,-99.99,,2013-06-19 00:33:00,
2013-06-18 20:43:00,66.0,64.0,29.82,WNW,290,0.0,-999.0,92,-99.99,,,-99.99,,2013-06-19 00:43:00,
2013-06-18 20:53:00,66.0,64.0,29.82,WNW,290,0.0,-999.0,92,-99.99,,,-99.99,,2013-06-19 00:53:00,
2013-06-18 21:01:00,66.0,64.0,29.83,WNW,290,0.0,-999.0,92,-99.99,,,-99.99,,2013-06-19 01:01:00,
2013-06-18 21:11:00,65.0,63.0,29.84,WNW,290,0.0,-999.0,92,-99.99,,,-99.99,,2013-06-19 01:11:00,
2013-06-18 21:22:00,65.0,63.0,29.84,WNW,290,0.0,-999.0,92,-99.99,,,-99.99,,2013-06-19 01:22:00,
2013-06-18 21:32:00,65.0,63.0,29.84,WNW,290,0.0,-999.0,92,-99.99,,,-99.99,,2013-06-19 01:32:00,
2013-06-18 21:43:00,65.0,63.0,29.84,WNW,290,0.0,-999.0,92,-99.99,,,-99.99,,2013-06-19 01:43:00,
2013-06-18 21:53:00,65.0,63.0,29.84,WNW,290,0.0,-999.0,92,-99.99,,,-99.99,,2013-06-19 01:53:00,
2013-06-18 22:11:00,64.0,62.0,29.85,WNW,290,0.0,-999.0,93,-99.99,,,-99.99,,2013-06-19 02:11:00,
2013-06-18 22:21:00,64.0,62.0,29.85,WNW,290,0.0,-999.0,93,-99.99,,,-99.99,,2013-06-19 02:21:00,
2013-06-18 22:32:00,64.0,62.0,29.85,WNW,290,0.0,-999.0,93,-99.99,,,-99.99,,2013-06-19 02:32:00,
2013-06-18 22:42:00,66.0,63.0,29.88,WNW,289,0.0,-999.0,89,-99.99,,,-99.99,,2013-06-19 02:42:00,
2013-06-18 22:52:00,66.0,63.0,29.88,WNW,289,0.0,-999.0,89,-99.99,,,-99.99,,2013-06-19 02:52:00,
2013-06-18 23:01:00,66.0,63.0,29.88,WNW,289,0.0,-999.0,89,-99.99,,,-99.99,,2013-06-19 03:01:00,
2013-06-18 23:11:00,66.0,62.0,29.89,WNW,289,0.0,-999.0,87,-99.99,,,-99.99,,2013-06-19 03:11:00,
2013-06-18 23:22:00,66.0,62.0,29.89,West,269,0.0,-999.0,88,-99.99,,,-99.99,,2013-06-19 03:22:00,
2013-06-18 23:33:00,66.0,62.0,29.89,West,269,0.0,-999.0,88,-99.99,,,-99.99,,2013-06-19 03:33:00,
2013-06-18 23:42:00,66.0,63.0,29.89,West,269,0.0,-999.0,89,-99.99,,,-99.99,,2013-06-19 03:42:00,
2013-06-18 23:52:00,66.0,63.0,29.89,West,269,0.0,-999.0,89,-99.99,,,-99.99,,2013-06-19 03:52:00,